Date,TemperatureHighF,TemperatureAvgF,TemperatureLowF,DewpointHighF,DewpointAvgF,DewpointLowF,HumidityHigh,HumidityAvg,HumidityLow,PressureMaxIn,PressureMinIn,WindSpeedMaxMPH,WindSpeedAvgMPH,GustSpeedMaxMPH,PrecipitationSumIn
2013-1-1,45,40,35,-100,-100,-100,0,0,100,0.00,40.00,29,18,35,0.00
2013-1-2,48,41,37,-100,-100,-100,0,0,100,0.00,40.00,27,20,32,0.00
2013-1-3,51,43,36,-100,-100,-100,0,0,100,0.00,40.00,31,20,37,0.00
2013-1-4,58,48,44,-100,-100,-100,0,0,100,0.00,40.00,22,7,30,0.00
2013-1-5,47,45,43,-100,-100,-100,0,0,100,0.00,40.00,16,9,24,0.00
2013-1-6,51,45,41,-100,-100,-100,0,0,100,0.00,40.00,27,8,39,0.00
2013-1-7,50,49,46,-100,-100,-100,0,0,100,0.00,40.00,35,18,44,0.00
2013-1-8,50,50,48,-100,-100,-100,0,0,100,0.00,40.00,34,26,44,0.00
2013-1-9,50,44,38,-100,-100,-100,0,0,100,0.00,40.00,40,16,53,0.00
2013-1-10,47,41,37,-100,-100,-100,0,0,100,0.00,40.00,29,10,40,0.00
2013-1-11,45,40,35,-100,-100,-100,0,0,100,0.00,40.00,24,8,37,0.00
2013-1-12,43,36,33,-100,-100,-100,0,0,100,0.00,40.00,14,10,16,0.00
2013-1-13,46,34,30,-100,-100,-100,0,0,100,0.00,40.00,14,9,17,0.00
2013-1-14,40,34,30,-100,-100,-100,0,0,100,0.00,40.00,15,9,17,0.00
2013-1-15,52,40,37,-100,-100,-100,0,0,100,0.00,40.00,14,9,17,0.00
2013-1-16,58,42,35,-100,-100,-100,0,0,100,0.00,40.00,18,11,22,0.00
2013-1-17,58,45,38,-100,-100,-100,0,0,100,0.00,40.00,24,16,29,0.00
2013-1-18,61,47,39,-100,-100,-100,0,0,100,0.00,40.00,19,9,22,0.00
2013-1-19,53,41,37,-100,-100,-100,0,0,100,0.00,40.00,16,6,18,0.00
2013-1-20,58,43,36,-100,-100,-100,0,0,100,0.00,40.00,17,10,19,0.00
2013-1-21,58,43,36,-100,-100,-100,0,0,100,0.00,40.00,21,13,23,0.00
2013-1-22,53,44,38,-100,-100,-100,0,0,100,0.00,40.00,22,16,25,0.00
2013-1-23,46,43,41,-100,-100,-100,0,0,100,0.00,40.00,17,9,27,0.00
2013-1-24,51,43,37,-100,-100,-100,0,0,100,0.00,40.00,20,12,28,0.00
2013-1-25,49,46,43,-100,-100,-100,0,0,100,0.00,40.00,24,13,30,0.00
2013-1-26,49,44,41,-100,-100,-100,0,0,100,0.00,40.00,35,12,42,0.00
2013-1-27,45,42,39,-100,-100,-100,0,0,100,0.00,40.00,22,10,32,0.00
2013-1-28,47,45,44,-100,-100,-100,0,0,100,0.00,40.00,24,13,29,0.00
2013-1-29,47,45,45,-100,-100,-100,0,0,100,0.00,40.00,19,10,27,0.00
2013-1-30,48,46,45,-100,-100,-100,0,0,100,0.00,40.00,24,12,28,0.00
2013-1-31,59,49,44,-100,-100,-100,0,0,100,0.00,40.00,8,3,9,0.00
2013-2-1,58,48,42,-100,-100,-100,0,0,100,0.00,40.00,19,10,21,0.00
2013-2-2,59,50,46,-100,-100,-100,0,0,100,0.00,40.00,19,13,22,0.00
2013-2-3,49,48,46,-100,-100,-100,0,0,100,0.00,40.00,8,2,11,0.00
2013-2-4,54,47,44,-100,-100,-100,0,0,100,0.00,40.00,30,9,37,0.00
2013-2-5,52,48,45,-100,-100,-100,0,0,100,0.00,40.00,35,21,42,0.00
2013-2-6,50,47,41,-100,-100,-100,0,0,100,0.00,40.00,37,18,41,0.00
2013-2-7,45,42,39,-100,-100,-100,0,0,100,0.00,40.00,26,8,34,0.00
2013-2-8,52,42,34,-100,-100,-100,0,0,100,0.00,40.00,20,9,29,0.00
2013-2-9,46,43,39,-100,-100,-100,0,0,100,0.00,40.00,9,5,16,0.00
2013-2-10,49,46,44,-100,-100,-100,0,0,100,0.00,40.00,14,7,19,0.00
2013-2-11,51,46,44,-100,-100,-100,0,0,100,0.00,40.00,15,6,17,0.00
2013-2-12,50,48,47,-100,-100,-100,0,0,100,0.00,40.00,15,8,17,0.00
2013-2-13,51,48,45,-100,-100,-100,0,0,100,0.00,40.00,15,6,17,0.00
2013-2-14,61,48,42,-100,-100,-100,0,0,100,0.00,40.00,19,6,21,0.00
2013-2-15,64,50,45,-100,-100,-100,0,0,100,0.00,40.00,16,7,19,0.00
2013-2-16,53,47,43,-100,-100,-100,0,0,100,0.00,40.00,17,8,23,0.00
2013-2-17,53,44,40,-100,-100,-100,0,0,100,0.00,40.00,11,4,17,0.00
2013-2-18,46,41,38,-100,-100,-100,0,0,100,0.00,40.00,26,9,34,0.00
2013-2-19,51,43,40,-100,-100,-100,0,0,100,0.00,40.00,19,8,24,0.00
2013-2-20,46,41,36,-100,-100,-100,0,0,100,0.00,40.00,28,10,32,0.00
2013-2-21,46,44,42,-100,-100,-100,0,0,100,0.00,40.00,32,16,39,0.00
2013-2-22,48,46,41,-100,-100,-100,0,0,100,0.00,40.00,44,25,53,0.00
2013-2-23,53,44,40,-100,-100,-100,0,0,100,0.00,40.00,26,11,35,0.00
2013-2-24,54,45,40,-100,-100,-100,0,0,100,0.00,40.00,32,11,40,0.00
2013-2-25,51,46,42,-100,-100,-100,0,0,100,0.00,40.00,36,16,44,0.00
2013-2-26,52,42,36,-100,-100,-100,0,0,100,0.00,40.00,17,8,19,0.00
2013-2-27,50,46,43,-100,-100,-100,0,0,100,0.00,40.00,20,8,31,0.00
2013-2-28,50,50,49,-100,-100,-100,0,0,100,0.00,40.00,31,25,42,0.00
2013-3-1,52,50,45,-100,-100,-100,0,0,100,0.00,40.00,23,11,34,0.00
2013-3-2,50,47,43,-100,-100,-100,0,0,100,0.00,40.00,18,8,23,0.00
2013-3-3,53,44,37,-100,-100,-100,0,0,100,0.00,40.00,20,8,27,0.00
2013-3-4,54,44,38,-100,-100,-100,0,0,100,0.00,40.00,30,13,35,0.00
2013-3-5,46,43,42,-100,-100,-100,0,0,100,0.00,40.00,18,8,21,0.00
2013-3-6,49,45,43,-100,-100,-100,0,0,100,0.00,40.00,28,14,35,0.00
2013-3-7,54,46,40,-100,-100,-100,0,0,100,0.00,40.00,14,6,17,0.00
2013-3-8,56,44,36,-100,-100,-100,0,0,100,0.00,40.00,16,7,20,0.00
2013-3-9,59,45,39,-100,-100,-100,0,0,100,0.00,40.00,18,6,20,0.00
2013-3-10,49,45,39,-100,-100,-100,0,0,100,0.00,40.00,9,4,10,0.00
2013-3-11,51,49,47,-100,-100,-100,0,0,100,0.00,40.00,7,2,9,0.00
2013-3-12,53,48,46,-100,-100,-100,0,0,100,0.00,40.00,18,7,21,0.00
2013-3-13,56,49,45,-100,-100,-100,0,0,100,0.00,40.00,14,4,18,0.00
2013-3-14,52,49,47,-100,-100,-100,0,0,100,0.00,40.00,26,15,34,0.00
2013-3-15,52,50,47,-100,-100,-100,0,0,100,0.00,40.00,21,9,26,0.00
2013-3-16,49,47,43,-100,-100,-100,0,0,100,0.00,40.00,31,14,35,0.00
2013-3-17,53,46,41,-100,-100,-100,0,0,100,0.00,40.00,16,8,27,0.00
2013-3-18,55,44,36,-100,-100,-100,0,0,100,0.00,40.00,21,8,24,0.00
2013-3-19,53,48,45,-100,-100,-100,0,0,100,0.00,40.00,38,13,48,0.00
2013-3-20,52,48,44,-100,-100,-100,0,0,100,0.00,40.00,50,28,70,0.00
2013-3-21,50,44,41,-100,-100,-100,0,0,100,0.00,40.00,25,12,34,0.00
2013-3-22,52,43,37,-100,-100,-100,0,0,100,0.00,40.00,20,7,32,0.00
2013-3-23,53,42,36,-100,-100,-100,0,0,100,0.00,40.00,18,8,21,0.00
2013-3-24,56,47,42,-100,-100,-100,0,0,100,0.00,40.00,13,8,16,0.00
2013-3-25,53,47,42,-100,-100,-100,0,0,100,0.00,40.00,13,6,16,0.00
2013-3-26,51,48,46,-100,-100,-100,0,0,100,0.00,40.00,14,4,17,0.00
2013-3-27,54,50,46,-100,-100,-100,0,0,100,0.00,40.00,12,7,14,0.00
2013-3-28,59,51,46,-100,-100,-100,0,0,100,0.00,40.00,11,4,14,0.00
2013-3-29,59,52,49,-100,-100,-100,0,0,100,0.00,40.00,24,8,28,0.00
2013-3-30,67,57,48,-100,-100,-100,0,0,100,0.00,40.00,37,11,45,0.00
2013-3-31,56,52,49,-100,-100,-100,0,0,100,0.00,40.00,33,13,44,0.00
2013-4-1,52,50,50,-100,-100,-100,0,0,100,0.00,40.00,14,9,17,0.00
2013-4-2,57,51,49,-100,-100,-100,0,0,100,0.00,40.00,12,6,14,0.00
2013-4-3,57,51,46,-100,-100,-100,0,0,100,0.00,40.00,9,4,11,0.00
2013-4-4,55,52,51,-100,-100,-100,0,0,100,0.00,40.00,40,17,60,0.00
2013-4-5,52,50,50,-100,-100,-100,0,0,100,0.00,40.00,42,26,55,0.00
2013-4-6,52,50,47,-100,-100,-100,0,0,100,0.00,40.00,39,21,52,0.00
2013-4-7,51,48,44,-100,-100,-100,0,0,100,0.00,40.00,50,25,60,0.00
2013-4-8,55,49,45,-100,-100,-100,0,0,100,0.00,40.00,15,8,26,0.00
2013-4-9,57,48,43,-100,-100,-100,0,0,100,0.00,40.00,9,4,10,0.00
2013-4-10,54,50,48,-100,-100,-100,0,0,100,0.00,40.00,32,13,37,0.00
2013-4-11,57,49,43,-100,-100,-100,0,0,100,0.00,40.00,19,8,24,0.00
2013-4-12,51,46,40,-100,-100,-100,0,0,100,0.00,40.00,32,11,39,0.00
2013-4-13,54,47,42,-100,-100,-100,0,0,100,0.00,40.00,21,12,32,0.00
2013-4-14,51,46,43,-100,-100,-100,0,0,100,0.00,40.00,14,6,18,0.00
2013-4-15,54,47,41,-100,-100,-100,0,0,100,0.00,40.00,17,8,23,0.00
2013-4-16,59,51,45,-100,-100,-100,0,0,100,0.00,40.00,14,8,21,0.00
2013-4-17,58,50,44,-100,-100,-100,0,0,100,0.00,40.00,11,6,16,0.00
2013-4-18,57,51,48,-100,-100,-100,0,0,100,0.00,40.00,12,6,16,0.00
2013-4-19,52,50,49,-100,-100,-100,0,0,100,0.00,40.00,31,14,35,0.00
2013-4-20,58,51,48,-100,-100,-100,0,0,100,0.00,40.00,13,7,18,0.00
2013-4-21,55,51,48,-100,-100,-100,0,0,100,0.00,40.00,11,5,14,0.00
2013-4-22,66,53,43,-100,-100,-100,0,0,100,0.00,40.00,24,10,30,0.00
2013-4-23,60,52,46,-100,-100,-100,0,0,100,0.00,40.00,28,11,36,0.00
2013-4-24,65,56,47,-100,-100,-100,0,0,100,0.00,40.00,30,12,34,0.00
2013-4-25,59,52,46,-100,-100,-100,0,0,100,0.00,40.00,27,11,32,0.00
2013-4-26,57,51,45,-100,-100,-100,0,0,100,0.00,40.00,25,9,29,0.00
2013-4-27,55,51,47,-100,-100,-100,0,0,100,0.00,40.00,11,4,14,0.00
2013-4-28,60,53,49,-100,-100,-100,0,0,100,0.00,40.00,22,8,25,0.00
2013-4-29,57,53,47,-100,-100,-100,0,0,100,0.00,40.00,25,14,28,0.00
2013-4-30,55,49,42,-100,-100,-100,0,0,100,0.00,40.00,22,11,29,0.00
2013-5-1,57,49,39,-100,-100,-100,0,0,100,0.00,40.00,29,11,36,0.00
2013-5-2,63,55,48,-100,-100,-100,0,0,100,0.00,40.00,32,14,40,0.00
2013-5-3,59,52,45,-100,-100,-100,0,0,100,0.00,40.00,31,13,39,0.00
2013-5-4,81,66,48,-100,-100,-100,0,0,100,0.00,40.00,28,11,35,0.00
2013-5-5,83,67,50,-100,-100,-100,0,0,100,0.00,40.00,31,16,41,0.00
2013-5-6,63,55,51,-100,-100,-100,0,0,100,0.00,40.00,19,9,24,0.00
2013-5-7,58,53,50,-100,-100,-100,0,0,100,0.00,40.00,19,11,24,0.00
2013-5-8,62,54,51,-100,-100,-100,0,0,100,0.00,40.00,13,6,17,0.00
2013-5-9,59,54,52,-100,-100,-100,0,0,100,0.00,40.00,26,11,29,0.00
2013-5-10,58,52,51,-100,-100,-100,0,0,100,0.00,40.00,12,4,14,0.00
2013-5-11,63,56,50,-100,-100,-100,0,0,100,0.00,40.00,13,4,14,0.00
2013-5-12,60,56,54,-100,-100,-100,0,0,100,0.00,40.00,19,12,26,0.00
2013-5-13,56,53,52,-100,-100,-100,0,0,100,0.00,40.00,27,14,32,0.00
2013-5-14,61,53,46,-100,-100,-100,0,0,100,0.00,40.00,17,7,21,0.00
2013-5-15,59,52,49,-100,-100,-100,0,0,100,0.00,40.00,23,7,28,0.00
2013-5-16,58,51,52,-100,-100,-100,0,0,100,0.00,40.00,22,11,28,0.00
2013-5-17,60,54,50,-100,-100,-100,0,0,100,0.00,40.00,13,7,15,0.00
2013-5-18,56,53,51,-100,-100,-100,0,0,100,0.00,40.00,29,12,37,0.00
2013-5-19,60,55,51,-100,-100,-100,0,0,100,0.00,40.00,27,16,35,0.00
2013-5-20,59,53,46,-100,-100,-100,0,0,100,0.00,40.00,22,8,27,0.00
2013-5-21,52,49,46,-100,-100,-100,0,0,100,0.00,40.00,24,9,34,0.00
2013-5-22,50,48,44,-100,-100,-100,0,0,100,0.00,40.00,29,15,35,0.00
2013-5-23,52,49,47,-100,-100,-100,0,0,100,0.00,40.00,24,17,32,0.00
2013-5-24,53,50,48,-100,-100,-100,0,0,100,0.00,40.00,26,16,31,0.00
2013-5-25,58,53,48,-100,-100,-100,0,0,100,0.00,40.00,18,8,21,0.00
2013-5-26,57,53,51,-100,-100,-100,0,0,100,0.00,40.00,23,15,28,0.00
2013-5-27,55,53,51,-100,-100,-100,0,0,100,0.00,40.00,37,20,49,0.00
2013-5-28,57,53,50,-100,-100,-100,0,0,100,0.00,40.00,27,14,37,0.00
2013-5-29,57,54,51,-100,-100,-100,0,0,100,0.00,40.00,37,18,53,0.00
2013-5-30,59,54,50,-100,-100,-100,0,0,100,0.00,40.00,18,7,21,0.00
2013-5-31,61,54,46,-100,-100,-100,0,0,100,0.00,40.00,23,10,28,0.00
2013-6-1,64,56,50,-100,-100,-100,0,0,100,0.00,40.00,11,6,14,0.00
2013-6-2,62,57,54,-100,-100,-100,0,0,100,0.00,40.00,24,13,31,0.00
2013-6-3,60,56,53,-100,-100,-100,0,0,100,0.00,40.00,31,14,38,0.00
2013-6-4,63,56,50,-100,-100,-100,0,0,100,0.00,40.00,26,13,32,0.00
2013-6-5,60,56,52,-100,-100,-100,0,0,100,0.00,40.00,29,14,37,0.00
2013-6-6,61,56,52,-100,-100,-100,0,0,100,0.00,40.00,24,14,32,0.00
2013-6-7,65,56,51,-100,-100,-100,0,0,100,0.00,40.00,22,7,28,0.00
2013-6-8,61,57,52,-100,-100,-100,0,0,100,0.00,40.00,31,16,37,0.00
2013-6-9,60,56,53,-100,-100,-100,0,0,100,0.00,40.00,30,19,44,0.00
2013-6-10,61,55,51,-100,-100,-100,0,0,100,0.00,40.00,21,11,27,0.00
2013-6-11,59,54,50,-100,-100,-100,0,0,100,0.00,40.00,14,6,15,0.00
2013-6-12,60,54,49,-100,-100,-100,0,0,100,0.00,40.00,14,7,14,0.00
2013-6-13,59,54,51,-100,-100,-100,0,0,100,0.00,40.00,17,11,20,0.00
2013-6-14,64,58,53,-100,-100,-100,0,0,100,0.00,40.00,26,10,32,0.00
2013-6-15,59,55,50,-100,-100,-100,0,0,100,0.00,40.00,16,6,17,0.00
2013-6-16,62,57,54,-100,-100,-100,0,0,100,0.00,40.00,14,6,16,0.00
2013-6-17,59,55,53,-100,-100,-100,0,0,100,0.00,40.00,24,12,30,0.00
2013-6-18,58,55,52,-100,-100,-100,0,0,100,0.00,40.00,27,15,36,0.00
2013-6-19,63,57,52,-100,-100,-100,0,0,100,0.00,40.00,19,11,22,0.00
2013-6-20,61,56,54,-100,-100,-100,0,0,100,0.00,40.00,14,8,18,0.00
2013-6-22,68,62,56,-100,-100,-100,0,0,100,0.00,40.00,14,6,18,0.00
2013-6-23,64,60,56,-100,-100,-100,0,0,100,0.00,40.00,26,10,27,0.00
2013-6-24,60,57,55,-100,-100,-100,0,0,100,0.00,40.00,26,15,41,0.00
2013-6-25,61,58,56,-100,-100,-100,0,0,100,0.00,40.00,30,17,41,0.00
2013-6-26,65,61,58,-100,-100,-100,0,0,100,0.00,40.00,22,14,27,0.00
2013-6-27,66,62,59,-100,-100,-100,0,0,100,0.00,40.00,21,7,27,0.00
2013-6-28,71,64,58,-100,-100,-100,0,0,100,0.00,40.00,8,3,12,0.00
2013-6-29,73,66,59,-100,-100,-100,0,0,100,0.00,40.00,24,9,29,0.00
2013-6-30,71,65,59,-100,-100,-100,0,0,100,0.00,40.00,12,4,16,0.00
2013-7-1,69,64,61,-100,-100,-100,0,0,100,0.00,40.00,21,12,27,0.00
2013-7-2,67,63,60,-100,-100,-100,0,0,100,0.00,40.00,27,16,37,0.00
2013-7-3,67,62,57,-100,-100,-100,0,0,100,0.00,40.00,30,16,39,0.00
2013-7-4,66,61,57,-100,-100,-100,0,0,100,0.00,40.00,24,15,34,0.00
2013-7-5,67,62,58,-100,-100,-100,0,0,100,0.00,40.00,21,12,26,0.00
2013-7-6,66,60,54,-100,-100,-100,0,0,100,0.00,40.00,20,11,26,0.00
2013-7-7,67,61,57,-100,-100,-100,0,0,100,0.00,40.00,18,11,26,0.00
2013-7-8,65,60,56,-100,-100,-100,0,0,100,0.00,40.00,26,12,32,0.00
2013-7-9,63,58,54,-100,-100,-100,0,0,100,0.00,40.00,29,14,35,0.00
2013-7-10,63,58,55,-100,-100,-100,0,0,100,0.00,40.00,29,19,39,0.00
2013-7-11,65,59,55,-100,-100,-100,0,0,100,0.00,40.00,27,16,37,0.00
2013-7-12,62,57,50,-100,-100,-100,0,0,100,0.00,40.00,19,10,24,0.00
2013-7-13,63,57,50,-100,-100,-100,0,0,100,0.00,40.00,31,14,40,0.00
2013-7-14,61,56,49,-100,-100,-100,0,0,100,0.00,40.00,34,15,40,0.00
2013-7-15,62,56,51,-100,-100,-100,0,0,100,0.00,40.00,28,12,34,0.00
2013-7-16,56,52,48,-100,-100,-100,0,0,100,0.00,40.00,26,13,28,0.00
2013-7-17,65,57,51,-100,-100,-100,0,0,100,0.00,40.00,22,9,27,0.00
2013-7-18,64,58,50,-100,-100,-100,0,0,100,0.00,40.00,26,14,34,0.00
2013-7-19,63,58,54,-100,-100,-100,0,0,100,0.00,40.00,27,16,39,0.00
2013-7-20,62,57,55,-100,-100,-100,0,0,100,0.00,40.00,29,16,37,0.00
2013-7-21,63,58,53,-100,-100,-100,0,0,100,0.00,40.00,26,14,35,0.00
2013-7-22,64,58,53,-100,-100,-100,0,0,100,0.00,40.00,29,16,35,0.00
2013-7-23,58,54,52,-100,-100,-100,0,0,100,0.00,40.00,29,14,37,0.00
2013-7-24,59,54,51,-100,-100,-100,0,0,100,0.00,40.00,27,14,35,0.00
2013-7-25,61,55,51,-100,-100,-100,0,0,100,0.00,40.00,31,15,36,0.00
2013-7-26,62,56,50,-100,-100,-100,0,0,100,0.00,40.00,31,15,39,0.00
2013-7-27,62,58,52,-100,-100,-100,0,0,100,0.00,40.00,22,17,30,0.00
2013-7-28,64,58,54,-100,-100,-100,0,0,100,0.00,40.00,18,10,26,0.00
2013-7-29,65,57,51,-100,-100,-100,0,0,100,0.00,40.00,10,5,16,0.00
2013-7-30,65,58,54,-100,-100,-100,0,0,100,0.00,40.00,10,3,17,0.00
2013-7-31,64,58,54,-100,-100,-100,0,0,100,0.00,40.00,11,6,14,0.00
2013-8-1,59,56,54,-100,-100,-100,0,0,100,0.00,40.00,17,11,19,0.00
2013-8-2,65,59,55,-100,-100,-100,0,0,100,0.00,40.00,15,8,20,0.00
2013-8-3,66,59,53,-100,-100,-100,0,0,100,0.00,40.00,26,10,31,0.00
2013-8-4,62,57,54,-100,-100,-100,0,0,100,0.00,40.00,24,12,30,0.00
2013-8-5,62,56,53,-100,-100,-100,0,0,100,0.00,40.00,26,14,31,0.00
2013-8-6,59,54,50,-100,-100,-100,0,0,100,0.00,40.00,26,13,32,0.00
2013-8-7,55,53,50,-100,-100,-100,0,0,100,0.00,40.00,12,4,17,0.00
2013-8-8,63,56,51,-100,-100,-100,0,0,100,0.00,40.00,23,8,31,0.00
2013-8-9,64,56,53,-100,-100,-100,0,0,100,0.00,40.00,17,7,23,0.00
2013-8-10,59,55,52,-100,-100,-100,0,0,100,0.00,40.00,11,5,15,0.00
2013-8-11,67,59,54,-100,-100,-100,0,0,100,0.00,40.00,9,3,12,0.00
2013-8-12,69,58,54,-100,-100,-100,0,0,100,0.00,40.00,12,3,16,0.00
2013-8-13,66,56,51,-100,-100,-100,0,0,100,0.00,40.00,18,10,26,0.00
2013-8-14,64,58,55,-100,-100,-100,0,0,100,0.00,40.00,21,13,25,0.00
2013-8-15,64,51,58,-100,-100,-100,0,0,100,0.00,40.00,17,5,22,0.00
2013-8-16,68,58,56,-100,-100,-100,0,0,100,0.00,40.00,7,2,9,0.00
2013-8-17,66,60,58,-100,-100,-100,0,0,100,0.00,40.00,10,4,12,0.00
2013-8-18,72,64,57,-100,-100,-100,0,0,100,0.00,40.00,19,9,24,0.00
2013-8-19,70,56,56,-100,-100,-100,0,0,100,0.00,40.00,26,12,36,0.00
2013-8-20,66,60,53,-100,-100,-100,0,0,100,0.00,40.00,32,15,37,0.00
2013-8-21,66,59,52,-100,-100,-100,0,0,100,0.00,40.00,26,10,30,0.00
2013-8-22,58,54,51,-100,-100,-100,0,0,100,0.00,40.00,25,6,29,0.00
2013-8-23,62,57,53,-100,-100,-100,0,0,100,0.00,40.00,17,8,19,0.00
2013-8-24,68,60,55,-100,-100,-100,0,0,100,0.00,40.00,12,5,18,0.00
2013-8-25,63,56,53,-100,-100,-100,0,0,100,0.00,40.00,12,4,17,0.00
2013-8-26,63,57,53,-100,-100,-100,0,0,100,0.00,40.00,32,14,42,0.00
2013-8-27,66,61,58,-100,-100,-100,0,0,100,0.00,40.00,21,7,28,0.00
2013-8-28,67,64,62,-100,-100,-100,0,0,100,0.00,40.00,17,10,20,0.00
2013-8-29,65,61,60,-100,-100,-100,0,0,100,0.00,40.00,34,17,45,0.00
2013-8-30,70,62,58,-100,-100,-100,0,0,100,0.00,40.00,21,10,30,0.00
2013-8-31,65,58,55,-100,-100,-100,0,0,100,0.00,40.00,13,5,15,0.00
2013-9-1,73,63,56,-100,-100,-100,0,0,100,0.00,40.00,21,9,25,0.00
2013-9-2,68,63,59,-100,-100,-100,0,0,100,0.00,40.00,22,12,27,0.00
2013-9-3,70,62,57,-100,-100,-100,0,0,100,0.00,40.00,19,9,23,0.00
2013-9-4,72,63,60,-100,-100,-100,0,0,100,0.00,40.00,9,4,11,0.00
2013-9-5,64,61,60,-100,-100,-100,0,0,100,0.00,40.00,16,5,19,0.00
2013-9-6,67,62,60,-100,-100,-100,0,0,100,0.00,40.00,18,9,21,0.00
2013-9-7,69,62,57,-100,-100,-100,0,0,100,0.00,40.00,22,10,29,0.00
2013-9-8,69,62,58,-100,-100,-100,0,0,100,0.00,40.00,29,12,34,0.00
2013-9-9,66,62,58,-100,-100,-100,0,0,100,0.00,40.00,29,12,35,0.00
2013-9-10,65,60,55,-100,-100,-100,0,0,100,0.00,40.00,27,9,32,0.00
2013-9-11,64,58,54,-100,-100,-100,0,0,100,0.00,40.00,27,14,32,0.00
2013-9-12,65,60,58,-100,-100,-100,0,0,100,0.00,40.00,12,5,17,0.00
2013-9-13,66,61,57,-100,-100,-100,0,0,100,0.00,40.00,11,5,14,0.00
2013-9-14,63,60,58,-100,-100,-100,0,0,100,0.00,40.00,16,5,18,0.00
2013-9-15,59,58,57,-100,-100,-100,0,0,100,0.00,40.00,21,13,26,0.00
2013-9-16,66,60,57,-100,-100,-100,0,0,100,0.00,40.00,14,8,19,0.00
2013-9-17,70,61,58,-100,-100,-100,0,0,100,0.00,40.00,12,6,17,0.00
2013-9-18,61,58,56,-100,-100,-100,0,0,100,0.00,40.00,9,4,10,0.00
2013-9-19,70,60,55,-100,-100,-100,0,0,100,0.00,40.00,16,9,17,0.00
2013-9-20,60,57,54,-100,-100,-100,0,0,100,0.00,40.00,24,8,31,0.00
2013-9-21,67,58,56,-100,-100,-100,0,0,100,0.00,40.00,18,8,20,0.00
2013-9-22,59,58,56,-100,-100,-100,0,0,100,0.00,40.00,43,24,56,0.00
2013-9-23,60,58,56,-100,-100,-100,0,0,100,0.00,40.00,26,11,32,0.00
2013-9-24,57,54,51,-100,-100,-100,0,0,100,0.00,40.00,20,6,23,0.00
2013-9-25,63,54,49,-100,-100,-100,0,0,100,0.00,40.00,16,5,22,0.00
2013-9-26,68,54,46,-100,-100,-100,0,0,100,0.00,40.00,12,6,13,0.00
2013-9-27,58,52,49,-100,-100,-100,0,0,100,0.00,40.00,29,10,40,0.00
2013-9-28,59,55,54,-100,-100,-100,0,0,100,0.00,40.00,49,32,65,0.00
2013-9-29,59,57,55,-100,-100,-100,0,0,100,0.00,40.00,50,33,66,0.00
2013-9-30,61,57,53,-100,-100,-100,0,0,100,0.00,40.00,39,28,52,0.00
2013-10-2,57,50,45,-100,-100,-100,0,0,100,0.00,40.00,17,8,20,0.00
2013-10-3,63,51,43,-100,-100,-100,0,0,100,0.00,40.00,12,7,17,0.00
2013-10-4,66,54,49,-100,-100,-100,0,0,100,0.00,40.00,17,10,22,0.00
2013-10-5,54,52,51,-100,-100,-100,0,0,100,0.00,40.00,13,10,15,0.00
2013-10-6,65,58,52,-100,-100,-100,0,0,100,0.00,40.00,22,16,29,0.00
2013-10-7,63,57,54,-100,-100,-100,0,0,100,0.00,40.00,20,13,28,0.00
2013-10-8,56,53,49,-100,-100,-100,0,0,100,0.00,40.00,14,7,30,0.00
2013-10-9,61,50,43,-100,-100,-100,0,0,100,0.00,40.00,20,8,24,0.00
2013-10-10,59,52,49,-100,-100,-100,0,0,100,0.00,40.00,14,5,22,0.00
2013-10-11,60,51,48,-100,-100,-100,0,0,100,0.00,40.00,8,5,11,0.00
2013-10-12,59,49,47,-100,-100,-100,0,0,100,0.00,40.00,10,5,13,0.00
2013-10-13,63,52,45,-100,-100,-100,0,0,100,0.00,40.00,17,8,20,0.00
2013-10-14,64,54,46,-100,-100,-100,0,0,100,0.00,40.00,20,8,24,0.00
2013-10-15,67,56,50,-100,-100,-100,0,0,100,0.00,40.00,17,7,28,0.00
2013-10-16,63,53,46,-100,-100,-100,0,0,100,0.00,40.00,19,8,22,0.00
2013-10-17,59,52,46,-100,-100,-100,0,0,100,0.00,40.00,21,9,25,0.00
2013-10-18,67,55,49,-100,-100,-100,0,0,100,0.00,40.00,17,10,19,0.00
2013-10-19,62,51,47,-100,-100,-100,0,0,100,0.00,40.00,21,7,25,0.00
2013-10-20,53,50,46,-100,-100,-100,0,0,100,0.00,40.00,24,7,27,0.00
2013-10-21,61,50,45,-100,-100,-100,0,0,100,0.00,40.00,17,4,20,0.00
2013-10-22,52,50,48,-100,-100,-100,0,0,100,0.00,40.00,6,2,10,0.00
2013-10-23,53,50,48,-100,-100,-100,0,0,100,0.00,40.00,7,4,12,0.00
2013-10-24,54,51,49,-100,-100,-100,0,0,100,0.00,40.00,13,5,17,0.00
2013-10-25,54,52,51,-100,-100,-100,0,0,100,0.00,40.00,8,5,10,0.00
2013-10-26,59,50,50,-100,-100,-100,0,0,100,0.00,40.00,15,8,21,0.00
2013-10-27,57,52,48,-100,-100,-100,0,0,100,0.00,40.00,21,9,30,0.00
2013-10-28,60,48,42,-100,-100,-100,0,0,100,0.00,40.00,15,8,24,0.00
2013-10-29,61,47,42,-100,-100,-100,0,0,100,0.00,40.00,13,8,16,0.00
2013-10-30,58,45,39,-100,-100,-100,0,0,100,0.00,40.00,12,7,14,0.00
2013-10-31,52,51,49,-100,-100,-100,0,0,100,0.00,40.00,12,5,17,0.00
2013-11-1,61,54,50,-100,-100,-100,0,0,100,0.00,40.00,15,7,17,0.00
2013-11-2,58,51,48,-100,-100,-100,0,0,100,0.00,40.00,29,15,45,0.00
2013-11-3,50,48,45,-100,-100,-100,0,0,100,0.00,40.00,17,6,27,0.00
2013-11-4,51,49,47,-100,-100,-100,0,0,100,0.00,40.00,21,10,27,0.00
2013-11-5,52,51,50,-100,-100,-100,0,0,100,0.00,40.00,29,18,39,0.00
2013-11-6,54,53,51,-100,-100,-100,0,0,100,0.00,40.00,16,9,21,0.00
2013-11-7,54,51,48,-100,-100,-100,0,0,100,0.00,40.00,30,16,42,0.00
2013-11-8,54,50,47,-100,-100,-100,0,0,100,0.00,40.00,12,5,14,0.00
2013-11-9,51,47,46,-100,-100,-100,0,0,100,0.00,40.00,13,9,21,0.00
2013-11-10,66,53,48,-100,-100,-100,0,0,100,0.00,40.00,16,9,26,0.00
2013-11-11,59,54,49,-100,-100,-100,0,0,100,0.00,40.00,23,14,37,0.00
2013-11-12,56,53,50,-100,-100,-100,0,0,100,0.00,40.00,22,13,37,0.00
2013-11-13,57,52,48,-100,-100,-100,0,0,100,0.00,40.00,17,5,18,0.00
2013-11-14,51,48,45,-100,-100,-100,0,0,100,0.00,40.00,11,4,13,0.00
2013-11-15,50,47,42,-100,-100,-100,0,0,100,0.00,40.00,29,16,38,0.00
2013-11-16,52,48,48,-100,-100,-100,0,0,100,0.00,40.00,27,14,35,0.00
2013-11-17,52,51,49,-100,-100,-100,0,0,100,0.00,40.00,24,17,36,0.00
2013-11-18,52,51,50,-100,-100,-100,0,0,100,0.00,40.00,45,22,57,0.00
2013-11-19,52,49,42,-100,-100,-100,0,0,100,0.00,40.00,38,18,49,0.00
2013-11-20,54,42,36,-100,-100,-100,0,0,100,0.00,40.00,14,8,20,0.00
2013-11-21,52,42,34,-100,-100,-100,0,0,100,0.00,40.00,16,8,20,0.00
2013-11-22,53,46,40,-100,-100,-100,0,0,100,0.00,40.00,29,23,35,0.00
2013-11-23,57,49,45,-100,-100,-100,0,0,100,0.00,40.00,30,23,37,0.00
2013-11-24,59,50,43,-100,-100,-100,0,0,100,0.00,40.00,20,13,26,0.00
2013-11-25,59,46,41,-100,-100,-100,0,0,100,0.00,40.00,14,10,17,0.00
2013-11-26,52,48,42,-100,-100,-100,0,0,100,0.00,40.00,16,12,19,0.00
2013-11-27,57,52,47,-100,-100,-100,0,0,100,0.00,40.00,18,14,21,0.00
2013-11-28,60,50,45,-100,-100,-100,0,0,100,0.00,40.00,16,10,18,0.00
2013-11-29,50,45,39,-100,-100,-100,0,0,100,0.00,40.00,17,7,17,0.00
2013-11-30,51,47,44,-100,-100,-100,0,0,100,0.00,40.00,24,6,29,0.00
2013-12-1,52,51,50,-100,-100,-100,0,0,100,0.00,40.00,39,29,45,0.00
2013-12-2,53,46,40,-100,-100,-100,0,0,100,0.00,40.00,17,11,34,0.00
2013-12-3,44,39,34,-100,-100,-100,0,0,100,0.00,40.00,17,9,21,0.00
2013-12-4,40,34,31,-100,-100,-100,0,0,100,0.00,40.00,12,7,16,0.00
2013-12-5,36,32,27,-100,-100,-100,0,0,100,0.00,40.00,16,10,18,0.00
2013-12-6,32,29,26,-100,-100,-100,0,0,100,0.00,40.00,24,14,31,0.00
2013-12-7,31,24,22,-100,-100,-100,0,0,100,0.00,40.00,14,7,18,0.00
2013-12-8,33,28,21,-100,-100,-100,0,0,100,0.00,40.00,14,9,17,0.00
2013-12-9,38,32,26,-100,-100,-100,0,0,100,0.00,40.00,17,9,19,0.00
2013-12-10,44,38,34,-100,-100,-100,0,0,100,0.00,40.00,14,10,16,0.00
2013-12-11,48,41,36,-100,-100,-100,0,0,100,0.00,40.00,21,14,24,0.00
2013-12-12,47,42,34,-100,-100,-100,0,0,100,0.00,40.00,25,13,32,0.00
2013-12-13,48,47,43,-100,-100,-100,0,0,100,0.00,40.00,21,10,30,0.00
2013-12-14,46,42,41,-100,-100,-100,0,0,100,0.00,40.00,12,6,15,0.00
2013-12-15,49,46,44,-100,-100,-100,0,0,100,0.00,40.00,8,4,10,0.00
2013-12-16,54,49,45,-100,-100,-100,0,0,100,0.00,40.00,18,10,21,0.00
2013-12-17,49,43,39,-100,-100,-100,0,0,100,0.00,40.00,12,6,17,0.00
2013-12-18,49,43,40,-100,-100,-100,0,0,100,0.00,40.00,14,7,26,0.00
2013-12-19,47,39,34,-100,-100,-100,0,0,100,0.00,40.00,9,5,14,0.00
2013-12-20,49,44,36,-100,-100,-100,0,0,100,0.00,40.00,32,13,41,0.00
2013-12-21,52,47,46,-100,-100,-100,0,0,100,0.00,40.00,17,8,19,0.00
2013-12-22,49,47,46,-100,-100,-100,0,0,100,0.00,40.00,17,9,21,0.00
2013-12-23,49,47,41,-100,-100,-100,0,0,100,0.00,40.00,14,7,21,0.00
2013-12-24,49,42,38,-100,-100,-100,0,0,100,0.00,40.00,12,9,14,0.00
2013-12-25,51,43,38,-100,-100,-100,0,0,100,0.00,40.00,15,10,19,0.00
2013-12-26,59,44,39,-100,-100,-100,0,0,100,0.00,40.00,18,12,21,0.00
2013-12-27,54,43,38,-100,-100,-100,0,0,100,0.00,40.00,14,10,20,0.00
2013-12-28,50,42,41,-100,-100,-100,0,0,100,0.00,40.00,11,8,16,0.00
2013-12-29,50,44,39,-100,-100,-100,0,0,100,0.00,40.00,13,9,17,0.00
2013-12-30,48,45,43,-100,-100,-100,0,0,100,0.00,40.00,16,9,19,0.00
2013-12-31,48,44,41,-100,-100,-100,0,0,100,0.00,40.00,9,4,9,0.00
2014-1-1,53,46,42,-100,-100,-100,0,0,100,0.00,40.00,17,12,22,0.00
2014-1-2,58,48,43,-100,-100,-100,0,0,100,0.00,40.00,22,10,27,0.00